Regional Weather Roundup
Issued by NWS Sioux Falls, SD

Home | Current Version | Previous Version | Text Only | Print | Product List | Glossary Off
Versions: 1 2 3 4 5 6 7 8 9 10 11 12 13 14 15 16 17 18 19 20 21 22 23 24 25 26 27 28 29 30 31 32 33 34 35 36 37 38 39 40 41 42 43 44 45 46 47 48 49 50

000
ASUS43 KFSD 290502
RWRFSD

WEATHER ROUNDUP FOR SE SOUTH DAKOTA/SW MINNESOTA/NW IOWA
NATIONAL WEATHER SERVICE SIOUX FALLS SD
1200 AM CDT FRI MAY 29 2015

NOTE: "FAIR" INDICATES FEW OR NO CLOUDS BELOW 12,000 FEET WITH NO
SIGNIFICANT WEATHER AND OR OBSTRUCTIONS TO VISIBILITY.


SDZ038>040-050-052>070-290600-
SOUTHEAST SOUTH DAKOTA

CITY           SKY/WX    TMP DP  RH WIND       PRES   REMARKS
BROOKINGS      MOCLDY    64  57  77 S10       29.89S
CHAMBERLAIN    NOT AVBL
HURON            N/A    N/A N/A N/A MISG      29.84F
MADISON        FAIR      63  63 100 S13       29.88F
MITCHELL       CLOUDY    70  62  76 SW3       29.86R
SIOUX FALLS    PTCLDY    66  62  87 S10       29.88F
WINNER         FAIR      62  56  80 W10       29.89S
YANKTON        MOCLDY    68  63  83 S12       29.86S
$$

MNZ071-072-080-081-089-090-097-098-290600-
SOUTHWEST MINNESOTA

CITY           SKY/WX    TMP DP  RH WIND       PRES   REMARKS
FAIRMONT       CLOUDY    66  59  77 S12       29.92F
JACKSON        CLOUDY    64  61  88 S9        29.93S
LUVERNE        MOCLDY    64  61  88 S6        29.90F
MARSHALL       CLOUDY    66  55  68 S9        29.87F
MONTEVIDEO     CLOUDY    68  59  73 S7        29.88F
REDWOOD FALLS  MOCLDY    67  59  75 S10       29.90S
TRACY          CLOUDY    66  60  81 S10       29.89F
WINDOM         CLOUDY    66  61  82 S9        29.91F
WORTHINGTON    CLOUDY    64  57  77 S10       29.91F
$$

IAZ001>003-012>014-020>022-031-032-NEZ013-014-SDZ071-290600-
NORTHWEST IOWA

CITY           SKY/WX    TMP DP  RH WIND       PRES   REMARKS
DENISON        CLOUDY    68  68 100 S9        29.92S
ESTHERVILLE    CLOUDY    65  61  87 S9        29.92F
SIOUX CITY     MOCLDY    68  62  81 SE9       29.89F
SPENCER        CLOUDY    67  63  87 S10       29.92F
$$

ABBREVIATIONS USED IN REMARKS
   TC - TEMPERATURE IN CELSIUS
  WCI - WIND CHILL INDEX
   HX - HEAT INDEX
  VSB - VISIBILITY




USA.gov is the U.S. government's official web portal to all federal, state and local government web resources and services.